SCP
0 0 -0 -0 -0 0 0 0 -0 -0 -0 -0 -0 -0 -0 -0 -0 -0 -0 -0 -0 0 0 0 0 0 0 0 0 0 0 0 0 0 0 0 0 0 0 0 0 0 0 0 0 0 0
0 -0 -0 -0 -0 -0 -0 0 0 0 -0 -0 -0 -0 -0 -0 -0 -0 -0 -0 0 0 0 0 0 0 0 0 0 0 0 0 0 0 0 0 0 0 0 0 0 0 0 0 0 0 0
-0 -0 -0 -0 -0 -0 -0 0 -0 -0 -0 -0 -0 -0 -0 -0 -0 -0 -0 -0 0 0 -0 -0 0 0 0 0 0 0 0 0 0 0 0 0 0 0 0 0 0 0 0 -0 0 0 0
-0 -0 -0 -0 -0 -0 -0 0 0 0 0 0 0 0 -0 -0 -0 -0 -0 -0 0 -0 -0 -0 -0 0 0 0 0 -0 0 0 0 0 0 0 0 0 0 0 0 0 0 0 0 0 0
-0 -0 -0 -0 -0 -0 -0 -0 -0 0 0 0 0 0 0 -0 -0 -0 -0 -0 0 0 0 0 0 0 0 0 0 0 0 0 0 0 0 0 0 0 0 0 0 0 0 0 0 0 0
0 0 -0 -0 -0 -0 -0 -0 0 0 0 0 0 0 0 -0 -0 -0 -0 0 -0 0 -0 -0 -0 0 0 0 0 0 0 0 0 0 0 0 0 0 0 0 0 0 0 0 0 0 0
0 0 0 -0 -0 -0 -0 -0 0 0 0 0 0 0 -0 -0 -0 -0 0 0 0 0 -0 0 -0 0 0 0 0 0 0 0 0 0 0 0 0 0 0 0 0 0 0 -0 -0 0 0
0 0 0 0 -0 -0 -0 0 0 0 0 0 0 0 0 -0 -0 -0 0 0 0 0 0 -0 -0 -0 -0 0 0 0 0 0 0 0 0 0 0 0 0 0 0 0 0 0 0 0 -0
0 0 0 0 -0 -0 -0 -0 0 0 0 0 0 0 0 -0 -0 0 0 0 0 0 0 -0 -0 -0 -0 0 0 -0 0 0 0 0 0 0 0 0 0 0 0 0 -0 0 0 0 0
0 0 0 0 0 -0 -0 0 0 0 0 0 0 0 0 -0 0 0 0 0 0 -0 0 0 -0 -0 -0 0 0 -0 -0 0 0 0 0 0 0 0 0 0 0 0 -0 0 0 0 0
0 0 0 0 0 0 0 0 0 0 0 0 0 0 0 0 0 0 0 0 0 0 0 -0 -0 -0 0 0 0 0 -0 0 0 0 0 0 0 0 0 0 0 0 0 0 0 0 0
0 0 0 0 0 0 0 0 0 0 0 0 0 0 0 0 0 0 0 0 0 0 0 0 -0 -0 0 -0 0 0 0 0 -0 0 0 0 0 0 0 0 0 0 0 0 0 0 0
0 0 0 0 0 0 0 0 0 0 0 0 0 0 0 0 0 0 0 0 0 0 0 0 0 -0 -0 0 0 0 0 0 0 0 0 0 0 0 0 0 0 0 0 0 0 0 0
0 0 0 0 0 0 0 0 -0 0 0 0 -0 -0 0 0 -0 0 0 0 0 0 0 0 0 0 0 0 0 0 0 0 0 0 0 0 0 0 0 0 0 0 0 0 0 0 0
0 0 0 0 0 0 0 0 -0 0 0 0 0 0 0 -0 0 0 0 0 0 0 0 0 0 0 0 0 0 0 0 0 0 0 0 0 0 0 0 0 0 0 0 0 0 0 0
0 0 0 0 0 0 0 0 -0 -0 0 0 0 0 0 -0 0 0 0 0 0 0 0 0 0 0 0 0 0 0 0 0 0 0 0 0 0 0 0 0 0 0 0 0 0 0 0
0 0 0 0 0 0 0 0 0 -0 0 -0 0 0 0 0 0 0 0 0 0 0 0 0 0 0 0 0 0 0 0 0 0 0 0 0 0 0 0 0 0 0 0 0 0 0 0
0 0 0 0 0 0 0 0 0 -0 -0 -0 -0 0 -0 0 0 0 0 0 0 0 0 0 0 0 0 0 0 0 0 0 0 0 0 0 0 0 0 0 0 0 0 0 0 0 0
0 0 0 0 0 0 0 0 0 -0 -0 -0 0 0 -0 0 0 0 0 0 0 0 0 0 0 0 0 0 0 0 0 0 0 0 0 0 0 0 0 0 0 0 0 0 0 0 0
0 0 0 0 0 0 0 0 0 0 -0 0 0 0 0 0 0 0 0 0 0 0 0 0 0 0 0 0 0 0 0 0 0 0 0 0 0 -0 -0 0 0 0 0 0 0 0 0
0 0 0 0 0 0 0 0 0 0 0 0 -0 0 0 0 0 0 0 0 0 0 0 0 0 0 0 0 0 0 0 0 0 0 0 0 0 0 0 0 0 0 0 0 0 0 0
0 0 0 0 0 0 0 0 0 0 0 0 0 0 0 0 0 0 0 0 0 0 0 0 0 0 0 0 0 0 0 0 0 0 0 0 0 0 0 0 0 0 0 0 0 1 0
0 0 0 0 0 0 0 0 0 0 0 0 0 0 0 0 0 0 0 0 0 0 0 0 0 0 0 0 0 0 0 0 0 0 0 0 0 0 0 0 0 0 0 0 0 0 0
0 0 0 0 0 0 0 0 0 0 0 0 0 0 0 0 0 0 0 0 0 0 0 0 0 0 0 0 0 0 0 0 0 0 0 0 0 0 0 0 -0 0 0 0 0 0 0
0 0 0 0 0 0 0 0 0 0 0 0 0 0 0 0 0 0 0 0 0 0 0 0 0 0 0 0 0 0 0 0 0 0 0 0 0 0 0 0 0 0 0 0 0 0 0
0 0 0 0 0 0 0 0 0 0 0 0 -0 -0 0 0 0 0 0 0 0 0 0 0 0 0 0 0 0 0 0 0 0 0 0 0 0 0 0 0 0 0 0 0 0 0 0
0 0 0 0 0 0 0 0 0 0 0 0 -0 0 0 0 0 0 0 0 0 0 0 0 0 0 0 0 0 0 0 0 0 0 0 0 0 0 0 0 0 0 0 1 0 0 0
0 0 0 0 0 0 0 0 0 0 0 0 0 0 0 0 0 0 0 0 0 0 0 0 0 -0 0 0 0 0 0 0 0 0 0 0 0 0 0 0 0 0 0 1 0 0 0
0 0 0 0 0 0 0 0 -0 0 0 0 0 0 0 0 0 0 0 0 -0 0 0 0 0 0 0 0 0 0 0 0 0 0 0 0 0 0 0 0 0 0 0 0 0 0 0
Wind_Speed_500mb
57 53 48 39 36 39 43 44 45 45 44 43 43 42 43 46 47 45 39 32 29 30 23 21 20 16 14 5 11 3 12 11 13 16 24 30 31 14 7 8 11 15 13 29 26 41 38
62 56 54 44 37 39 44 46 47 48 48 47 46 46 45 46 46 43 38 31 30 25 22 18 19 12 11 7 12 19 15 8 9 11 21 33 23 19 14 11 7 10 22 28 25 40 30
65 65 61 53 40 39 43 47 48 51 52 52 50 49 48 45 44 41 33 29 27 24 21 17 15 13 16 11 16 16 16 9 5 9 15 34 22 8 10 13 7 14 10 8 12 28 16
58 63 64 62 54 47 46 47 49 52 53 52 51 52 51 45 42 37 28 27 29 18 13 10 9 14 11 17 19 23 16 12 10 14 12 13 15 18 9 15 14 9 5 6 1 19 16
53 57 63 64 65 59 53 50 52 53 57 56 52 53 50 44 38 30 24 28 17 10 8 6 5 9 8 13 20 21 26 14 15 15 19 12 15 13 4 8 10 11 4 6 2 8 18
52 53 60 63 66 66 60 54 53 55 57 55 52 52 49 41 30 19 23 14 10 4 11 5 6 5 3 2 3 8 17 18 14 13 10 11 10 4 6 8 10 5 4 7 6 10 21
52 55 58 63 65 65 69 57 52 53 57 56 55 52 45 36 24 14 17 8 12 5 31 13 12 12 20 15 7 6 12 18 18 4 5 5 6 9 14 10 8 5 4 6 7 8 3
52 53 56 61 67 67 70 61 53 54 58 57 54 50 46 33 16 9 14 14 16 17 17 30 27 35 32 23 9 5 13 13 8 3 4 10 9 13 7 8 8 7 7 10 13 13 11
51 53 57 62 69 68 68 64 53 51 56 58 56 51 47 31 13 5 9 14 14 13 4 16 11 16 14 10 10 13 19 16 8 6 2 9 12 5 5 9 8 5 6 4 10 14 14
54 56 59 64 69 74 68 69 58 53 56 57 55 50 51 31 5 6 4 15 13 10 8 9 6 8 15 9 6 18 24 17 3 15 13 6 12 8 8 11 8 12 14 15 12 1 6
54 58 59 62 68 73 69 69 63 55 57 58 55 52 46 30 13 3 10 16 11 6 8 6 7 4 12 11 2 5 29 25 12 9 13 14 5 11 13 16 11 16 8 15 9 12 6
56 59 62 65 69 72 69 65 63 57 58 55 51 51 45 23 12 8 15 12 5 9 4 2 6 4 8 4 4 7 11 15 7 8 4 13 7 12 15 15 17 11 3 9 9 6 3
57 59 60 63 67 71 67 64 63 60 58 57 49 43 35 17 5 10 15 8 8 7 8 12 5 3 6 3 4 9 8 7 10 7 5 8 9 7 11 5 2 8 12 5 3 2 11
60 62 62 63 65 69 67 62 62 61 56 55 51 38 17 5 9 6 9 8 5 4 6 4 6 7 9 12 5 7 10 4 6 8 6 6 10 4 3 12 15 13 18 11 10 8 10
65 67 65 64 64 66 64 62 61 63 57 58 47 25 3 6 6 4 4 8 8 4 6 8 4 13 13 9 1 4 10 10 8 5 13 8 9 9 7 3 11 6 6 13 14 6 4
69 71 67 66 64 65 60 59 59 54 49 52 45 19 11 6 5 6 8 5 6 5 4 10 8 6 13 15 12 10 11 7 11 11 5 6 3 4 11 6 6 6 7 5 6 10 7
64 71 58 55 57 61 53 49 52 50 47 43 30 6 11 9 8 5 5 8 8 13 7 9 5 8 6 7 7 8 8 4 7 10 19 3 5 10 3 6 3 11 9 9 11 7 11
57 63 54 45 48 54 50 43 45 45 45 37 10 4 6 12 6 4 1 7 5 11 20 11 10 9 7 11 12 6 6 5 29 7 6 4 8 3 8 7 5 4 6 5 9 6 3
55 57 51 45 44 54 46 37 37 39 42 45 24 3 14 13 1 5 9 6 16 9 12 8 11 7 10 9 6 11 10 22 44 19 6 3 6 7 17 12 12 10 8 5 4 5 11
53 55 50 46 49 51 40 33 30 34 34 36 12 6 8 10 5 7 1 4 8 17 15 22 8 11 10 13 15 9 16 10 16 32 11 5 6 10 10 11 3 8 13 7 7 7 6
52 56 50 52 51 50 33 26 24 26 25 19 9 4 5 3 5 4 4 2 7 6 9 21 13 11 5 9 7 9 8 12 10 35 14 9 6 4 6 13 8 9 12 15 3 6 10
51 52 49 49 48 48 29 28 19 18 17 5 7 6 7 5 14 2 6 7 9 6 7 6 13 9 14 10 7 2 5 6 2 15 13 14 2 5 6 9 16 10 15 2 13 12 10
50 54 52 47 48 41 28 14 13 12 9 3 5 6 4 4 7 4 5 8 5 10 16 20 23 8 11 4 4 12 12 11 8 2 6 7 6 7 9 10 13 3 10 7 13 15 10
53 49 47 47 48 35 25 15 15 9 8 8 6 3 3 4 3 3 8 18 12 5 14 9 16 8 2 4 3 3 7 10 9 15 12 3 4 2 6 10 3 7 11 23 23 21 27
49 50 48 47 46 33 24 19 15 12 10 9 4 3 3 1 5 7 18 16 23 26 12 14 9 12 3 11 8 11 11 14 11 4 7 9 9 1 4 3 9 7 11 12 11 8 22
51 49 55 49 38 29 26 23 19 13 13 14 7 6 3 8 5 4 7 14 8 6 5 9 17 12 7 10 8 5 2 4 11 20 18 5 7 7 4 4 11 3 28 34 20 5 27
55 55 50 38 33 31 29 27 21 13 15 18 11 7 5 4 13 8 6 8 9 9 7 5 7 9 6 5 6 4 4 4 3 4 12 10 5 11 5 3 7 24 48 39 8 5 30
61 57 50 41 39 30 31 29 20 15 18 20 13 12 8 5 16 16 12 13 15 12 9 14 9 8 8 7 6 5 5 6 2 4 2 1 8 5 6 6 7 42 14 9 14 16 21
58 54 42 37 32 30 34 26 16 16 19 22 14 18 12 7 8 9 14 16 13 10 31 9 13 9 10 8 3 3 1 2 4 4 2 5 2 5 2 6 6 22 16 29 30 16 24
Wind_Direction_500mb
15 12 10 5 4 4 4 3 360 356 351 347 345 344 342 339 340 339 336 331 326 324 320 312 316 313 303 275 241 151 139 138 181 217 222 200 178 204 252 244 192 225 236 202 214 192 204
17 15 13 10 5 1 1 0 358 355 351 346 343 342 341 338 337 338 334 328 324 323 316 310 304 305 281 272 160 157 160 191 222 241 213 191 197 199 284 277 197 287 267 255 245 200 208
14 14 14 12 8 1 358 356 355 354 351 346 341 340 339 337 336 336 336 327 324 320 310 302 293 291 263 230 162 173 174 189 279 283 213 193 177 260 308 313 304 279 298 286 167 209 228
13 16 16 11 4 354 349 350 350 350 349 346 341 339 338 336 333 337 341 333 319 312 317 296 287 288 255 151 184 186 191 187 238 258 253 197 213 274 220 281 330 356 19 358 29 128 152
6 8 9 9 7 0 351 344 344 346 347 345 342 338 336 336 333 339 347 338 337 330 343 312 273 294 257 196 203 214 211 235 233 264 258 231 268 233 248 91 1 5 236 231 30 181 158
4 2 2 2 3 1 356 349 346 345 344 343 341 338 337 336 334 344 355 346 1 47 20 10 240 330 332 16 202 225 224 225 238 286 257 234 193 95 43 91 212 230 347 327 38 337 184
358 358 359 358 356 355 355 345 342 342 344 344 341 339 339 336 332 356 22 30 358 314 319 251 274 271 274 345 163 152 170 203 242 308 150 9 97 206 227 183 189 287 210 303 256 248 262
354 356 355 356 354 351 350 347 342 341 342 341 341 339 338 339 314 345 39 49 24 320 301 293 268 264 264 282 305 194 175 151 143 227 39 14 234 224 246 229 180 260 319 318 284 332 175
350 349 350 350 353 351 350 350 344 340 341 341 340 338 337 340 297 309 105 37 349 328 321 293 240 247 263 211 214 251 194 176 128 143 113 161 246 244 188 288 315 253 171 264 252 332 356
348 347 348 348 347 349 348 349 343 341 340 339 339 338 337 340 294 186 79 339 337 320 60 281 235 224 212 226 253 215 192 176 88 182 158 229 277 219 253 254 153 285 169 237 269 129 205
345 344 346 346 345 345 344 346 344 339 340 338 339 335 334 324 280 228 301 308 295 291 72 174 184 196 184 174 247 204 192 198 173 172 101 246 230 209 224 232 151 245 211 250 251 209 152
342 341 343 344 344 343 343 342 344 338 340 335 338 335 329 323 263 229 306 312 275 41 81 2 141 169 131 228 320 108 153 194 204 142 11 229 242 168 212 239 181 234 310 37 53 92 126
337 336 338 340 344 340 340 338 340 339 340 334 338 332 323 310 267 240 305 304 38 101 320 335 322 63 64 309 303 159 160 175 164 132 321 311 267 263 212 257 53 114 76 307 317 46 211
333 331 335 339 338 338 339 335 334 336 338 333 340 334 325 321 227 242 302 57 75 2 327 335 340 60 75 359 311 326 152 229 51 75 112 154 310 229 35 200 187 181 157 169 201 175 233
329 328 330 332 334 336 335 333 332 332 336 337 341 341 144 127 157 331 326 71 199 207 253 330 44 71 347 350 84 42 39 12 356 182 160 149 272 303 249 247 144 195 158 205 108 358 49
327 322 319 325 331 331 332 333 332 333 335 340 340 349 155 174 236 330 72 223 257 250 354 59 84 36 31 337 34 34 21 319 320 18 193 212 283 288 290 24 6 176 182 95 2 141 204
327 332 323 319 327 330 329 330 332 334 339 344 339 36 145 207 231 0 115 224 281 4 88 62 73 57 88 358 2 34 351 275 325 336 68 55 104 284 326 73 243 344 353 36 111 121 157
329 333 329 326 326 326 327 326 331 333 342 347 351 48 88 170 23 41 183 205 35 347 52 59 83 75 72 28 22 57 67 350 349 323 59 342 136 283 231 274 313 185 21 99 123 219 101
328 332 333 332 333 326 324 327 331 336 344 349 331 321 59 171 115 328 307 50 52 40 24 56 44 22 40 40 94 33 358 353 13 22 45 7 22 12 350 357 8 44 350 312 166 91 189
323 329 332 334 330 325 319 323 330 338 344 344 336 6 53 115 81 135 18 40 109 38 52 70 39 61 59 36 16 35 355 352 348 15 27 56 97 144 182 224 218 313 315 310 100 105 183
313 325 324 325 326 327 311 316 318 334 339 344 343 345 27 325 356 16 106 45 95 76 69 42 28 29 98 60 30 16 343 329 351 8 21 67 76 355 266 270 254 246 277 317 318 236 173
311 319 317 320 326 326 304 304 298 325 331 327 336 0 355 352 314 348 17 357 119 92 75 50 105 56 74 99 151 282 3 34 323 336 23 357 29 13 297 304 286 288 329 334 58 336 265
312 312 317 314 316 310 300 289 276 309 315 263 282 297 287 338 349 81 196 166 141 108 38 121 153 109 77 122 238 281 255 255 253 12 355 39 35 35 281 329 323 339 320 85 89 20 298
311 307 310 308 306 296 284 259 277 285 270 240 252 237 198 259 113 159 129 112 112 119 129 127 100 99 145 341 230 246 344 334 257 251 205 133 50 72 257 352 227 230 37 102 101 30 7
311 310 308 309 300 274 265 251 259 265 238 203 228 217 208 103 301 68 128 114 102 106 114 115 92 103 88 38 51 23 352 8 343 1 256 198 119 348 155 213 282 2 36 341 12 345 9
308 307 306 305 290 255 245 234 239 234 226 204 204 245 204 132 338 253 116 141 136 126 43 101 100 109 63 73 66 92 213 287 319 331 12 71 92 127 124 163 209 284 309 311 299 283 352
305 304 303 292 284 252 234 228 241 221 209 187 187 198 204 130 26 83 119 157 133 117 119 122 129 62 43 61 74 134 251 195 277 324 336 327 335 177 175 187 293 332 317 320 110 296 330
300 298 300 287 270 236 224 216 232 211 194 177 176 184 170 128 75 77 96 131 126 152 137 153 87 23 54 74 120 211 185 225 123 193 289 271 320 236 115 143 249 350 359 33 327 317 333
295 294 285 282 253 223 206 205 207 198 177 169 170 178 171 162 122 94 91 99 105 153 137 117 130 126 148 95 175 110 219 44 177 235 269 239 199 253 216 100 56 36 21 19 44 31 4
Wind_Speed_850mb
57 53 48 39 36 39 43 44 45 45 44 43 43 42 43 46 47 45 39 32 29 30 23 21 20 16 14 5 11 3 12 11 13 16 24 30 31 14 7 8 11 15 13 29 26 41 38
62 56 54 44 37 39 44 46 47 48 48 47 46 46 45 46 46 43 38 31 30 25 22 18 19 12 11 7 12 19 15 8 9 11 21 33 23 19 14 11 7 10 22 28 25 40 30
65 65 61 53 40 39 43 47 48 51 52 52 50 49 48 45 44 41 33 29 27 24 21 17 15 13 16 11 16 16 16 9 5 9 15 34 22 8 10 13 7 14 10 8 12 28 16
58 63 64 62 54 47 46 47 49 52 53 52 51 52 51 45 42 37 28 27 29 18 13 10 9 14 11 17 19 23 16 12 10 14 12 13 15 18 9 15 14 9 5 6 1 19 16
53 57 63 64 65 59 53 50 52 53 57 56 52 53 50 44 38 30 24 28 17 10 8 6 5 9 8 13 20 21 26 14 15 15 19 12 15 13 4 8 10 11 4 6 2 8 18
52 53 60 63 66 66 60 54 53 55 57 55 52 52 49 41 30 19 23 14 10 4 11 5 6 5 3 2 3 8 17 18 14 13 10 11 10 4 6 8 10 5 4 7 6 10 21
52 55 58 63 65 65 69 57 52 53 57 56 55 52 45 36 24 14 17 8 12 5 31 13 12 12 20 15 7 6 12 18 18 4 5 5 6 9 14 10 8 5 4 6 7 8 3
52 53 56 61 67 67 70 61 53 54 58 57 54 50 46 33 16 9 14 14 16 17 17 30 27 35 32 23 9 5 13 13 8 3 4 10 9 13 7 8 8 7 7 10 13 13 11
51 53 57 62 69 68 68 64 53 51 56 58 56 51 47 31 13 5 9 14 14 13 4 16 11 16 14 10 10 13 19 16 8 6 2 9 12 5 5 9 8 5 6 4 10 14 14
54 56 59 64 69 74 68 69 58 53 56 57 55 50 51 31 5 6 4 15 13 10 8 9 6 8 15 9 6 18 24 17 3 15 13 6 12 8 8 11 8 12 14 15 12 1 6
54 58 59 62 68 73 69 69 63 55 57 58 55 52 46 30 13 3 10 16 11 6 8 6 7 4 12 11 2 5 29 25 12 9 13 14 5 11 13 16 11 16 8 15 9 12 6
56 59 62 65 69 72 69 65 63 57 58 55 51 51 45 23 12 8 15 12 5 9 4 2 6 4 8 4 4 7 11 15 7 8 4 13 7 12 15 15 17 11 3 9 9 6 3
57 59 60 63 67 71 67 64 63 60 58 57 49 43 35 17 5 10 15 8 8 7 8 12 5 3 6 3 4 9 8 7 10 7 5 8 9 7 11 5 2 8 12 5 3 2 11
60 62 62 63 65 69 67 62 62 61 56 55 51 38 17 5 9 6 9 8 5 4 6 4 6 7 9 12 5 7 10 4 6 8 6 6 10 4 3 12 15 13 18 11 10 8 10
65 67 65 64 64 66 64 62 61 63 57 58 47 25 3 6 6 4 4 8 8 4 6 8 4 13 13 9 1 4 10 10 8 5 13 8 9 9 7 3 11 6 6 13 14 6 4
69 71 67 66 64 65 60 59 59 54 49 52 45 19 11 6 5 6 8 5 6 5 4 10 8 6 13 15 12 10 11 7 11 11 5 6 3 4 11 6 6 6 7 5 6 10 7
64 71 58 55 57 61 53 49 52 50 47 43 30 6 11 9 8 5 5 8 8 13 7 9 5 8 6 7 7 8 8 4 7 10 19 3 5 10 3 6 3 11 9 9 11 7 11
57 63 54 45 48 54 50 43 45 45 45 37 10 4 6 12 6 4 1 7 5 11 20 11 10 9 7 11 12 6 6 5 29 7 6 4 8 3 8 7 5 4 6 5 9 6 3
55 57 51 45 44 54 46 37 37 39 42 45 24 3 14 13 1 5 9 6 16 9 12 8 11 7 10 9 6 11 10 22 44 19 6 3 6 7 17 12 12 10 8 5 4 5 11
53 55 50 46 49 51 40 33 30 34 34 36 12 6 8 10 5 7 1 4 8 17 15 22 8 11 10 13 15 9 16 10 16 32 11 5 6 10 10 11 3 8 13 7 7 7 6
52 56 50 52 51 50 33 26 24 26 25 19 9 4 5 3 5 4 4 2 7 6 9 21 13 11 5 9 7 9 8 12 10 35 14 9 6 4 6 13 8 9 12 15 3 6 10
51 52 49 49 48 48 29 28 19 18 17 5 7 6 7 5 14 2 6 7 9 6 7 6 13 9 14 10 7 2 5 6 2 15 13 14 2 5 6 9 16 10 15 2 13 12 10
50 54 52 47 48 41 28 14 13 12 9 3 5 6 4 4 7 4 5 8 5 10 16 20 23 8 11 4 4 12 12 11 8 2 6 7 6 7 9 10 13 3 10 7 13 15 10
53 49 47 47 48 35 25 15 15 9 8 8 6 3 3 4 3 3 8 18 12 5 14 9 16 8 2 4 3 3 7 10 9 15 12 3 4 2 6 10 3 7 11 23 23 21 27
49 50 48 47 46 33 24 19 15 12 10 9 4 3 3 1 5 7 18 16 23 26 12 14 9 12 3 11 8 11 11 14 11 4 7 9 9 1 4 3 9 7 11 12 11 8 22
51 49 55 49 38 29 26 23 19 13 13 14 7 6 3 8 5 4 7 14 8 6 5 9 17 12 7 10 8 5 2 4 11 20 18 5 7 7 4 4 11 3 28 34 20 5 27
55 55 50 38 33 31 29 27 21 13 15 18 11 7 5 4 13 8 6 8 9 9 7 5 7 9 6 5 6 4 4 4 3 4 12 10 5 11 5 3 7 24 48 39 8 5 30
61 57 50 41 39 30 31 29 20 15 18 20 13 12 8 5 16 16 12 13 15 12 9 14 9 8 8 7 6 5 5 6 2 4 2 1 8 5 6 6 7 42 14 9 14 16 21
58 54 42 37 32 30 34 26 16 16 19 22 14 18 12 7 8 9 14 16 13 10 31 9 13 9 10 8 3 3 1 2 4 4 2 5 2 5 2 6 6 22 16 29 30 16 24
Wind_Direction_850mb
15 12 10 5 4 4 4 3 360 356 351 347 345 344 342 339 340 339 336 331 326 324 320 312 316 313 303 275 241 151 139 138 181 217 222 200 178 204 252 244 192 225 236 202 214 192 204
17 15 13 10 5 1 1 0 358 355 351 346 343 342 341 338 337 338 334 328 324 323 316 310 304 305 281 272 160 157 160 191 222 241 213 191 197 199 284 277 197 287 267 255 245 200 208
14 14 14 12 8 1 358 356 355 354 351 346 341 340 339 337 336 336 336 327 324 320 310 302 293 291 263 230 162 173 174 189 279 283 213 193 177 260 308 313 304 279 298 286 167 209 228
13 16 16 11 4 354 349 350 350 350 349 346 341 339 338 336 333 337 341 333 319 312 317 296 287 288 255 151 184 186 191 187 238 258 253 197 213 274 220 281 330 356 19 358 29 128 152
6 8 9 9 7 0 351 344 344 346 347 345 342 338 336 336 333 339 347 338 337 330 343 312 273 294 257 196 203 214 211 235 233 264 258 231 268 233 248 91 1 5 236 231 30 181 158
4 2 2 2 3 1 356 349 346 345 344 343 341 338 337 336 334 344 355 346 1 47 20 10 240 330 332 16 202 225 224 225 238 286 257 234 193 95 43 91 212 230 347 327 38 337 184
358 358 359 358 356 355 355 345 342 342 344 344 341 339 339 336 332 356 22 30 358 314 319 251 274 271 274 345 163 152 170 203 242 308 150 9 97 206 227 183 189 287 210 303 256 248 262
354 356 355 356 354 351 350 347 342 341 342 341 341 339 338 339 314 345 39 49 24 320 301 293 268 264 264 282 305 194 175 151 143 227 39 14 234 224 246 229 180 260 319 318 284 332 175
350 349 350 350 353 351 350 350 344 340 341 341 340 338 337 340 297 309 105 37 349 328 321 293 240 247 263 211 214 251 194 176 128 143 113 161 246 244 188 288 315 253 171 264 252 332 356
348 347 348 348 347 349 348 349 343 341 340 339 339 338 337 340 294 186 79 339 337 320 60 281 235 224 212 226 253 215 192 176 88 182 158 229 277 219 253 254 153 285 169 237 269 129 205
345 344 346 346 345 345 344 346 344 339 340 338 339 335 334 324 280 228 301 308 295 291 72 174 184 196 184 174 247 204 192 198 173 172 101 246 230 209 224 232 151 245 211 250 251 209 152
342 341 343 344 344 343 343 342 344 338 340 335 338 335 329 323 263 229 306 312 275 41 81 2 141 169 131 228 320 108 153 194 204 142 11 229 242 168 212 239 181 234 310 37 53 92 126
337 336 338 340 344 340 340 338 340 339 340 334 338 332 323 310 267 240 305 304 38 101 320 335 322 63 64 309 303 159 160 175 164 132 321 311 267 263 212 257 53 114 76 307 317 46 211
333 331 335 339 338 338 339 335 334 336 338 333 340 334 325 321 227 242 302 57 75 2 327 335 340 60 75 359 311 326 152 229 51 75 112 154 310 229 35 200 187 181 157 169 201 175 233
329 328 330 332 334 336 335 333 332 332 336 337 341 341 144 127 157 331 326 71 199 207 253 330 44 71 347 350 84 42 39 12 356 182 160 149 272 303 249 247 144 195 158 205 108 358 49
327 322 319 325 331 331 332 333 332 333 335 340 340 349 155 174 236 330 72 223 257 250 354 59 84 36 31 337 34 34 21 319 320 18 193 212 283 288 290 24 6 176 182 95 2 141 204
327 332 323 319 327 330 329 330 332 334 339 344 339 36 145 207 231 0 115 224 281 4 88 62 73 57 88 358 2 34 351 275 325 336 68 55 104 284 326 73 243 344 353 36 111 121 157
329 333 329 326 326 326 327 326 331 333 342 347 351 48 88 170 23 41 183 205 35 347 52 59 83 75 72 28 22 57 67 350 349 323 59 342 136 283 231 274 313 185 21 99 123 219 101
328 332 333 332 333 326 324 327 331 336 344 349 331 321 59 171 115 328 307 50 52 40 24 56 44 22 40 40 94 33 358 353 13 22 45 7 22 12 350 357 8 44 350 312 166 91 189
323 329 332 334 330 325 319 323 330 338 344 344 336 6 53 115 81 135 18 40 109 38 52 70 39 61 59 36 16 35 355 352 348 15 27 56 97 144 182 224 218 313 315 310 100 105 183
313 325 324 325 326 327 311 316 318 334 339 344 343 345 27 325 356 16 106 45 95 76 69 42 28 29 98 60 30 16 343 329 351 8 21 67 76 355 266 270 254 246 277 317 318 236 173
311 319 317 320 326 326 304 304 298 325 331 327 336 0 355 352 314 348 17 357 119 92 75 50 105 56 74 99 151 282 3 34 323 336 23 357 29 13 297 304 286 288 329 334 58 336 265
312 312 317 314 316 310 300 289 276 309 315 263 282 297 287 338 349 81 196 166 141 108 38 121 153 109 77 122 238 281 255 255 253 12 355 39 35 35 281 329 323 339 320 85 89 20 298
311 307 310 308 306 296 284 259 277 285 270 240 252 237 198 259 113 159 129 112 112 119 129 127 100 99 145 341 230 246 344 334 257 251 205 133 50 72 257 352 227 230 37 102 101 30 7
311 310 308 309 300 274 265 251 259 265 238 203 228 217 208 103 301 68 128 114 102 106 114 115 92 103 88 38 51 23 352 8 343 1 256 198 119 348 155 213 282 2 36 341 12 345 9
308 307 306 305 290 255 245 234 239 234 226 204 204 245 204 132 338 253 116 141 136 126 43 101 100 109 63 73 66 92 213 287 319 331 12 71 92 127 124 163 209 284 309 311 299 283 352
305 304 303 292 284 252 234 228 241 221 209 187 187 198 204 130 26 83 119 157 133 117 119 122 129 62 43 61 74 134 251 195 277 324 336 327 335 177 175 187 293 332 317 320 110 296 330
300 298 300 287 270 236 224 216 232 211 194 177 176 184 170 128 75 77 96 131 126 152 137 153 87 23 54 74 120 211 185 225 123 193 289 271 320 236 115 143 249 350 359 33 327 317 333
295 294 285 282 253 223 206 205 207 198 177 169 170 178 171 162 122 94 91 99 105 153 137 117 130 126 148 95 175 110 219 44 177 235 269 239 199 253 216 100 56 36 21 19 44 31 4